Voltar ao catálogo

STARLINK-35479

AtivoComunicaçõesVLEO
NORAD 66326·PAYLOAD·🇺🇸 United States

Lançado Nov 6, 2025 de Cape Canaveral Space Force Station

Loading…

Próximas Passagens (próximas 24 horas)

TLE

AtualizadoSource: CelesTrak SupGP

Época: Sep 14, 2026, 23:17 UTC

1 66326C 25253H   26257.97062500  .00003404  00000+0  12325-3 0  2574
2 66326  43.0005 223.6033 0001415 259.6988  37.8347 15.27590699    10

Acompanhe STARLINK-35479 em tempo real com AllMySat

Download on the App Store